Location: Unspecified
(38.6830°S, 0.0000°E)
Time: 10:56:31
(UTC+00:00)

Envisat - Pass Details

Date: 30 May 2019
Orbit: 764 x 766 km, 98.1° (Epoch: 20 June)

Event Time Altitude Azimuth Distance (km) Brightness Sun altitude
Rises 05:06:00 0° 60° (ENE) 3,233 7.4 -23.1°
Reaches altitude 10° 05:09:09 10° 81° (E) 2,317 6.6 -22.5°
Maximum altitude 05:12:10 16° 117° (ESE) 1,941 5.7 -22.0°
Drops below altitude 10° 05:15:11 10° 153° (SSE) 2,334 5.7 -21.4°
Sets 05:18:22 0° 174° (S) 3,270 6.2 -20.8°
